Welcome to the New NWS' Forecast!
Most changes are behind the scenes, but click here for differences you might notice.

Regional Weather Roundup (RWR)

Issued by Gray - Portland, ME (GYX)

                            
697 
ASUS41 KGYX 150505
RWRGYX
WEATHER ROUNDUP FOR MAINE AND NEW HAMPSHIRE
NATIONAL WEATHER SERVICE GRAY ME
100 AM EDT WED AUG 15 2018

MEZ002-005-006-010-012-015-018-020-021-024-026-027-029-150600-
MAINE
  
CITY           SKY/WX    TMP DP  RH WIND       PRES   REMARKS
PORTLAND       CLOUDY    70  69  97 N3        29.84S                  
SANFORD        CLOUDY    69  69 100 CALM      29.84F FOG              
BAR HARBOR     CLOUDY    67  66  97 CALM      29.86F FOG              
WISCASSET      FOG       70  70 100 CALM      29.85F VSB 1/2          
ROCKLAND       LGT RAIN  67  67 100 CALM      29.85S VSB 1/4          
FRYEBURG       CLOUDY    68  68 100 CALM      29.84F                  
LEWISTONAUBURN CLOUDY    69  68  96 E3        29.84F                  
AUGUSTA        CLOUDY    69  69 100 CALM      29.84F FOG              
WATERVILLE     CLOUDY    69  68  96 CALM      29.82                   
BANGOR         FOG       70  69  97 S6        29.85F VSB 3/4          
GREENVILLE       N/A     68  67  96 CALM      29.85S                  
MILLINOCKET    CLOUDY    71  67  87 CALM      29.84F                  
HOULTON        MOCLDY    70  69  97 S8        29.82S                  
PRESQUE ISLE   CLOUDY    72  68  87 S3        29.82S                  
FRENCHVILLE    CLOUDY    72  67  84 S5        29.80S                  
CARIBOU        LGT RAIN  73  69  87 SW6       29.80S                  
$$

NHZ002-005-008-009-011-012-014-150600-
NEW HAMPSHIRE
  
CITY           SKY/WX    TMP DP  RH WIND       PRES   REMARKS
PORTSMOUTH     CLOUDY    69  69  98 CALM      29.82S FOG              
ROCHESTER      CLOUDY    69  69 100 N3        29.83F FOG              
MANCHESTER     NOT AVBL                                               
CONCORD        FAIR      69  67  93 CALM      29.84S                  
LACONIA        FAIR      66  65  96 CALM      29.85F                  
PLYMOUTH       FOG       66  65  95 CALM      29.84F VSB 1            
BERLIN         FAIR      65  65 100 CALM      29.86S                  
WHITEFIELD     FAIR      63  62  97 CALM      29.86S                  
JAFFREY        NOT AVBL                                               
LEBANON        MOCLDY    66  63  90 CALM      29.84R                  
MT WASHINGTON  MOCLDY    52  50  93 W8          N/A                   
$$

VTZ005-007-008-150600-
VERMONT
  
CITY           SKY/WX    TMP DP  RH WIND       PRES   REMARKS
ST JOHNSBURY     N/A     67  66  97 MISG      29.83R                  
MONTPELIER     FAIR      67  67 100 CALM      29.89R                  
BURLINGTON     MOCLDY    72  65  78 S5        29.82R                  
$$

MAZ007-012-024-CTZ003-RIZ002-NYZ038-NYZ072-150600-
SOUTHERN NEW ENGLAND AND NY
  
CITY           SKY/WX    TMP DP  RH WIND       PRES   REMARKS
BOSTON         MOCLDY    72  69  90 S5        29.83S                  
WORCESTER      CLOUDY    67  67 100 SW5       29.86F                  
NANTUCKET      FAIR      71  70  96 S9        29.87S                  
PROVIDENCE     FAIR      71  69  93 SW5       29.84S                  
HARTFORD       MOCLDY    71  68  90 S3        29.82F                  
ALBANY         MOCLDY    72  67  84 NW5       29.83S                  
NEW YORK CITY  MOCLDY    74  66  76 W13       29.84S                  
$$

ANZ081-ANZ082-ANZ150-NHZ014-MEZ023>029-150600-
COASTAL MARINE OBSERVATIONS
  
STATION/POSITION TIME  TEMP    WIND        PRES    WAVE
                       AIR SEA DIR/SP/G            HT/PER
                 (UTC) (F)     (DEG/KT/KT) (MB)    (FT/S)
MOUNT DESERT ROC 0500   66     130/  8/  9 1011.3F
MATINICUS ROCK   0400   68     170/ 15/ 16 1010.5F
ISLE OF SHOALS   0400   68     330/  5/  5 1009.8S
JEFFREYS LEDGE   0436      69                N/A     3/ 4
$$

.............KEY..............
   WCI - WIND CHILL
   TC  - TEMPERATURE IN CELSIUS
   VSB - VISIBILITY IN MILES
   HX  - HEAT INDEX
   FAIR- INDICATES FEW OR NO CLOUDS BELOW 12,000 FT, WITH NO 
         SIGNIFICANT WEATHER AND/OR OBSTRUCTIONS TO VISIBILITY.